Time,TemperatureF,DewpointF,PressureIn,WindDirection,WindDirectionDegrees,WindSpeedMPH,WindSpeedGustMPH,Humidity,HourlyPrecipIn,Conditions,Clouds,dailyrainin,SoftwareType,DateUTC
2013-02-07 00:00:00,53.5,44.3,29.85,SSE,149,5.0,6.0,71,0.00,,,0.00,Wunderground v.1.15,2013-02-07 06:00:00,
2013-02-07 00:10:00,53.6,44.8,29.85,SSE,159,5.0,5.0,72,0.00,,,0.00,Wunderground v.1.15,2013-02-07 06:10:00,
2013-02-07 00:16:00,53.6,45.2,29.85,South,185,5.0,5.0,73,0.00,,,0.00,Wunderground v.1.15,2013-02-07 06:16:00,
2013-02-07 00:22:00,53.6,45.5,29.85,SSE,165,5.0,6.0,74,0.00,,,0.00,Wunderground v.1.15,2013-02-07 06:22:00,
2013-02-07 00:29:00,53.5,45.4,29.84,SSW,194,5.0,6.0,74,0.00,,,0.00,Wunderground v.1.15,2013-02-07 06:29:00,
2013-02-07 00:34:00,53.5,45.8,29.84,SSE,149,5.0,6.0,75,0.00,,,0.00,Wunderground v.1.15,2013-02-07 06:34:00,
2013-02-07 00:44:00,53.4,46.0,29.84,South,180,5.0,5.0,76,0.00,,,0.00,Wunderground v.1.15,2013-02-07 06:44:00,
2013-02-07 00:50:00,53.3,45.9,29.84,South,182,6.0,9.0,76,0.00,,,0.00,Wunderground v.1.15,2013-02-07 06:50:00,
2013-02-07 00:56:00,53.2,46.2,29.85,South,183,5.0,9.0,77,0.00,,,0.00,Wunderground v.1.15,2013-02-07 06:56:00,
2013-02-07 01:02:00,53.2,46.5,29.85,SSW,194,5.0,6.0,78,0.00,,,0.00,Wunderground v.1.15,2013-02-07 07:02:00,
2013-02-07 01:09:00,53.2,46.5,29.86,SSW,200,4.0,6.0,78,0.00,,,0.00,Wunderground v.1.15,2013-02-07 07:09:00,
2013-02-07 01:20:00,53.1,46.4,29.85,SSW,196,5.0,5.0,78,0.00,,,0.00,Wunderground v.1.15,2013-02-07 07:20:00,
2013-02-07 01:26:00,53.0,46.3,29.84,South,191,5.0,5.0,78,0.00,,,0.00,Wunderground v.1.15,2013-02-07 07:26:00,
2013-02-07 01:32:00,53.0,46.3,29.84,SSW,192,3.0,4.0,78,0.00,,,0.00,Wunderground v.1.15,2013-02-07 07:32:00,
2013-02-07 01:40:00,52.9,46.2,29.84,South,179,4.0,5.0,78,0.00,,,0.00,Wunderground v.1.15,2013-02-07 07:40:00,
2013-02-07 01:46:00,52.8,46.1,29.84,SSW,193,5.0,5.0,78,0.00,,,0.00,Wunderground v.1.15,2013-02-07 07:46:00,
2013-02-07 01:52:00,52.7,46.0,29.84,South,178,4.0,4.0,78,0.00,,,0.00,Wunderground v.1.15,2013-02-07 07:52:00,
2013-02-07 01:59:00,52.7,46.0,29.83,SSE,167,5.0,5.0,78,0.00,,,0.00,Wunderground v.1.15,2013-02-07 07:59:00,
2013-02-07 02:04:00,52.7,46.4,29.83,South,173,4.0,5.0,79,0.00,,,0.00,Wunderground v.1.15,2013-02-07 08:04:00,
2013-02-07 02:10:00,52.7,46.7,29.83,SSE,152,4.0,6.0,80,0.00,,,0.00,Wunderground v.1.15,2013-02-07 08:10:00,
2013-02-07 02:16:00,52.7,46.7,29.83,SSE,157,5.0,11.0,80,0.00,,,0.00,Wunderground v.1.15,2013-02-07 08:16:00,
2013-02-07 02:22:00,52.8,47.1,29.83,SSE,153,7.0,9.0,81,0.00,,,0.00,Wunderground v.1.15,2013-02-07 08:22:00,
2013-02-07 02:29:00,52.7,47.0,29.82,South,179,7.0,9.0,81,0.00,,,0.00,Wunderground v.1.15,2013-02-07 08:29:00,
2013-02-07 02:34:00,52.7,47.0,29.82,South,184,6.0,9.0,81,0.00,,,0.00,Wunderground v.1.15,2013-02-07 08:34:00,
2013-02-07 02:40:00,52.6,47.3,29.81,SE,136,5.0,11.0,82,0.00,,,0.00,Wunderground v.1.15,2013-02-07 08:40:00,
2013-02-07 02:46:00,52.6,47.3,29.81,South,179,6.0,11.0,82,0.00,,,0.00,Wunderground v.1.15,2013-02-07 08:46:00,
2013-02-07 02:52:00,52.6,47.6,29.80,South,183,6.0,7.0,83,0.00,,,0.00,Wunderground v.1.15,2013-02-07 08:52:00,
2013-02-07 02:59:00,52.6,47.6,29.80,SSE,167,8.0,11.0,83,0.00,,,0.00,Wunderground v.1.15,2013-02-07 08:59:00,
2013-02-07 03:04:00,52.6,47.6,29.80,South,180,7.0,10.0,83,0.00,,,0.00,Wunderground v.1.15,2013-02-07 09:04:00,
2013-02-07 03:10:00,52.6,47.9,29.80,SSW,194,5.0,5.0,84,0.00,,,0.00,Wunderground v.1.15,2013-02-07 09:10:00,
2013-02-07 03:16:00,52.6,47.9,29.80,South,182,5.0,8.0,84,0.00,,,0.00,Wunderground v.1.15,2013-02-07 09:16:00,
2013-02-07 03:22:00,52.6,48.2,29.80,South,187,6.0,12.0,85,0.00,,,0.00,Wunderground v.1.15,2013-02-07 09:22:00,
2013-02-07 03:29:00,52.6,48.2,29.80,South,191,8.0,12.0,85,0.00,,,0.00,Wunderground v.1.15,2013-02-07 09:29:00,
2013-02-07 03:34:00,52.7,48.6,29.80,South,179,8.0,12.0,86,0.00,,,0.00,Wunderground v.1.15,2013-02-07 09:34:00,
2013-02-07 03:40:00,52.7,48.6,29.80,SSW,200,7.0,7.0,86,0.00,,,0.00,Wunderground v.1.15,2013-02-07 09:40:00,
2013-02-07 03:46:00,52.7,48.6,29.79,SSE,155,6.0,11.0,86,0.00,,,0.00,Wunderground v.1.15,2013-02-07 09:46:00,
2013-02-07 03:52:00,52.7,48.6,29.78,SSE,150,5.0,9.0,86,0.00,,,0.00,Wunderground v.1.15,2013-02-07 09:52:00,
2013-02-07 03:59:00,52.7,48.9,29.79,SSE,168,4.0,9.0,87,0.00,,,0.00,Wunderground v.1.15,2013-02-07 09:59:00,
2013-02-07 04:04:00,52.7,48.9,29.79,SSE,158,5.0,10.0,87,0.00,,,0.00,Wunderground v.1.15,2013-02-07 10:04:00,
2013-02-07 04:10:00,52.8,49.0,29.79,South,176,4.0,4.0,87,0.00,,,0.00,Wunderground v.1.15,2013-02-07 10:10:00,
2013-02-07 04:16:00,52.8,49.0,29.79,South,187,4.0,7.0,87,0.00,,,0.00,Wunderground v.1.15,2013-02-07 10:16:00,
2013-02-07 04:22:00,52.8,49.0,29.79,South,186,4.0,6.0,87,0.00,,,0.00,Wunderground v.1.15,2013-02-07 10:22:00,
2013-02-07 04:29:00,52.9,49.1,29.78,SSE,164,4.0,6.0,87,0.00,,,0.00,Wunderground v.1.15,2013-02-07 10:29:00,
2013-02-07 04:34:00,53.0,49.2,29.78,South,173,4.0,5.0,87,0.00,,,0.00,Wunderground v.1.15,2013-02-07 10:34:00,
2013-02-07 04:40:00,53.0,49.2,29.77,South,186,5.0,5.0,87,0.00,,,0.00,Wunderground v.1.15,2013-02-07 10:40:00,
2013-02-07 04:46:00,53.0,49.2,29.78,SSE,147,5.0,5.0,87,0.00,,,0.00,Wunderground v.1.15,2013-02-07 10:46:00,
2013-02-07 04:52:00,53.1,49.3,29.78,South,177,3.0,4.0,87,0.00,,,0.00,Wunderground v.1.15,2013-02-07 10:52:00,
2013-02-07 04:58:00,53.1,49.3,29.78,South,181,3.0,4.0,87,0.00,,,0.00,Wunderground v.1.15,2013-02-07 10:58:00,
2013-02-07 05:04:00,53.2,49.4,29.78,South,169,2.0,3.0,87,0.00,,,0.00,Wunderground v.1.15,2013-02-07 11:04:00,
2013-02-07 05:10:00,53.3,49.5,29.78,South,180,3.0,3.0,87,0.00,,,0.00,Wunderground v.1.15,2013-02-07 11:10:00,
2013-02-07 05:16:00,53.3,49.5,29.78,South,184,3.0,3.0,87,0.00,,,0.00,Wunderground v.1.15,2013-02-07 11:16:00,
2013-02-07 05:22:00,53.3,49.8,29.78,SSE,167,2.0,4.0,88,0.00,,,0.00,Wunderground v.1.15,2013-02-07 11:22:00,
2013-02-07 05:29:00,53.4,49.9,29.78,South,186,3.0,6.0,88,0.00,,,0.00,Wunderground v.1.15,2013-02-07 11:29:00,
2013-02-07 05:34:00,53.4,49.9,29.78,South,178,3.0,3.0,88,0.00,,,0.00,Wunderground v.1.15,2013-02-07 11:34:00,
2013-02-07 05:40:00,53.5,50.0,29.78,South,183,2.0,8.0,88,0.00,,,0.00,Wunderground v.1.15,2013-02-07 11:40:00,
2013-02-07 05:46:00,53.5,50.0,29.77,SSE,161,3.0,8.0,88,0.00,,,0.00,Wunderground v.1.15,2013-02-07 11:46:00,
2013-02-07 05:52:00,53.5,50.0,29.77,SSW,198,3.0,4.0,88,0.00,,,0.00,Wunderground v.1.15,2013-02-07 11:52:00,
2013-02-07 05:59:00,53.5,50.0,29.78,South,171,3.0,4.0,88,0.00,,,0.00,Wunderground v.1.15,2013-02-07 11:59:00,
2013-02-07 06:04:00,53.6,50.1,29.77,South,171,3.0,3.0,88,0.00,,,0.00,Wunderground v.1.15,2013-02-07 12:04:00,
2013-02-07 06:10:00,53.6,50.1,29.77,South,180,2.0,3.0,88,0.00,,,0.00,Wunderground v.1.15,2013-02-07 12:10:00,
2013-02-07 06:16:00,53.6,50.1,29.77,South,184,2.0,5.0,88,0.00,,,0.00,Wunderground v.1.15,2013-02-07 12:16:00,
2013-02-07 06:22:00,53.5,50.0,29.77,SSE,149,2.0,6.0,88,0.00,,,0.00,Wunderground v.1.15,2013-02-07 12:22:00,
2013-02-07 06:29:00,53.5,50.0,29.77,SSE,148,2.0,6.0,88,0.00,,,0.00,Wunderground v.1.15,2013-02-07 12:29:00,
2013-02-07 06:34:00,53.5,50.0,29.77,South,182,2.0,5.0,88,0.00,,,0.00,Wunderground v.1.15,2013-02-07 12:34:00,
2013-02-07 06:40:00,53.5,50.0,29.77,SE,142,3.0,7.0,88,0.00,,,0.00,Wunderground v.1.15,2013-02-07 12:40:00,
2013-02-07 06:46:00,53.5,50.0,29.77,South,187,3.0,7.0,88,0.00,,,0.00,Wunderground v.1.15,2013-02-07 12:46:00,
2013-02-07 06:52:00,53.4,49.9,29.77,South,175,2.0,3.0,88,0.00,,,0.00,Wunderground v.1.15,2013-02-07 12:52:00,
2013-02-07 06:59:00,53.5,50.0,29.77,SSE,163,2.0,3.0,88,0.00,,,0.00,Wunderground v.1.15,2013-02-07 12:59:00,
2013-02-07 07:04:00,53.5,50.0,29.77,South,180,2.0,2.0,88,0.00,,,0.00,Wunderground v.1.15,2013-02-07 13:04:00,
2013-02-07 07:10:00,53.4,49.9,29.78,South,170,2.0,2.0,88,0.00,,,0.00,Wunderground v.1.15,2013-02-07 13:10:00,
2013-02-07 07:16:00,53.4,49.9,29.78,SSE,168,2.0,4.0,88,0.00,,,0.00,Wunderground v.1.15,2013-02-07 13:16:00,
2013-02-07 07:22:00,53.3,50.1,29.78,South,184,1.0,2.0,89,0.00,,,0.00,Wunderground v.1.15,2013-02-07 13:22:00,
2013-02-07 07:29:00,53.3,50.1,29.78,South,185,2.0,2.0,89,0.00,,,0.00,Wunderground v.1.15,2013-02-07 13:29:00,
2013-02-07 07:34:00,53.3,50.1,29.79,South,181,2.0,3.0,89,0.00,,,0.00,Wunderground v.1.15,2013-02-07 13:34:00,
2013-02-07 07:40:00,53.3,50.1,29.78,South,179,2.0,2.0,89,0.00,,,0.00,Wunderground v.1.15,2013-02-07 13:40:00,
2013-02-07 07:46:00,53.4,50.2,29.78,South,176,2.0,3.0,89,0.00,,,0.00,Wunderground v.1.15,2013-02-07 13:46:00,
2013-02-07 07:52:00,53.5,50.3,29.79,South,176,1.0,2.0,89,0.00,,,0.00,Wunderground v.1.15,2013-02-07 13:52:00,
2013-02-07 07:58:00,53.6,50.4,29.79,South,175,1.0,3.0,89,0.00,,,0.00,Wunderground v.1.15,2013-02-07 13:58:00,
2013-02-07 08:04:00,53.6,50.4,29.79,South,175,1.0,1.0,89,0.00,,,0.00,Wunderground v.1.15,2013-02-07 14:04:00,
2013-02-07 08:10:00,53.7,50.5,29.79,South,175,1.0,1.0,89,0.00,,,0.00,Wunderground v.1.15,2013-02-07 14:10:00,
2013-02-07 08:16:00,53.8,50.6,29.80,South,175,0.0,1.0,89,0.00,,,0.00,Wunderground v.1.15,2013-02-07 14:16:00,
2013-02-07 08:22:00,53.9,50.7,29.81,South,175,0.0,0.0,89,0.00,,,0.00,Wunderground v.1.15,2013-02-07 14:22:00,
2013-02-07 08:29:00,53.9,50.7,29.81,South,175,0.0,0.0,89,0.00,,,0.00,Wunderground v.1.15,2013-02-07 14:29:00,
2013-02-07 08:34:00,54.1,50.9,29.82,South,175,0.0,0.0,89,0.00,,,0.00,Wunderground v.1.15,2013-02-07 14:34:00,
2013-02-07 08:40:00,54.2,50.7,29.82,South,175,0.0,0.0,88,0.00,,,0.00,Wunderground v.1.15,2013-02-07 14:40:00,
2013-02-07 08:46:00,54.3,50.8,29.82,South,175,0.0,2.0,88,0.00,,,0.00,Wunderground v.1.15,2013-02-07 14:46:00,
2013-02-07 08:52:00,54.4,50.9,29.83,South,175,1.0,2.0,88,0.00,,,0.00,Wunderground v.1.15,2013-02-07 14:52:00,
2013-02-07 08:59:00,54.2,50.4,29.83,NE,36,1.0,3.0,87,0.00,,,0.00,Wunderground v.1.15,2013-02-07 14:59:00,
2013-02-07 09:04:00,54.1,50.3,29.84,NNE,24,1.0,2.0,87,0.00,,,0.00,Wunderground v.1.15,2013-02-07 15:04:00,
2013-02-07 09:10:00,53.8,50.0,29.84,NNE,21,1.0,1.0,87,0.00,,,0.00,Wunderground v.1.15,2013-02-07 15:10:00,
2013-02-07 09:16:00,53.7,49.9,29.84,NNE,21,1.0,1.0,87,0.00,,,0.00,Wunderground v.1.15,2013-02-07 15:16:00,
2013-02-07 09:22:00,53.6,50.1,29.83,NNE,22,0.0,0.0,88,0.00,,,0.00,Wunderground v.1.15,2013-02-07 15:22:00,
2013-02-07 09:29:00,53.6,50.1,29.84,NNE,21,0.0,0.0,88,0.00,,,0.00,Wunderground v.1.15,2013-02-07 15:29:00,
2013-02-07 09:40:00,53.7,50.5,29.83,NNE,21,0.0,0.0,89,0.00,,,0.00,Wunderground v.1.15,2013-02-07 15:40:00,
2013-02-07 09:46:00,53.6,50.4,29.83,NNE,22,0.0,0.0,89,0.00,,,0.00,Wunderground v.1.15,2013-02-07 15:46:00,
2013-02-07 09:52:00,53.6,50.4,29.83,East,81,0.0,0.0,89,0.00,,,0.00,Wunderground v.1.15,2013-02-07 15:52:00,
2013-02-07 09:59:00,53.5,50.6,29.83,ESE,115,1.0,1.0,90,0.00,,,0.00,Wunderground v.1.15,2013-02-07 15:59:00,
2013-02-07 10:04:00,53.6,50.7,29.83,ESE,117,1.0,3.0,90,0.00,,,0.00,Wunderground v.1.15,2013-02-07 16:04:00,
2013-02-07 10:10:00,53.9,51.0,29.83,SE,125,2.0,2.0,90,0.00,,,0.00,Wunderground v.1.15,2013-02-07 16:10:00,
2013-02-07 10:16:00,54.2,51.3,29.83,SE,125,2.0,3.0,90,0.00,,,0.00,Wunderground v.1.15,2013-02-07 16:16:00,
2013-02-07 10:22:00,54.5,51.3,29.83,SE,124,2.0,3.0,89,0.00,,,0.00,Wunderground v.1.15,2013-02-07 16:22:00,
2013-02-07 10:29:00,55.0,52.1,29.83,SE,124,1.0,3.0,90,0.00,,,0.00,Wunderground v.1.15,2013-02-07 16:29:00,
2013-02-07 10:34:00,55.5,52.3,29.83,ESE,123,1.0,3.0,89,0.00,,,0.00,Wunderground v.1.15,2013-02-07 16:34:00,
2013-02-07 10:40:00,56.3,53.1,29.83,ESE,123,1.0,1.0,89,0.00,,,0.00,Wunderground v.1.15,2013-02-07 16:40:00,
2013-02-07 10:46:00,56.9,53.4,29.83,SE,126,1.0,1.0,88,0.00,,,0.00,Wunderground v.1.15,2013-02-07 16:46:00,
2013-02-07 10:52:00,57.3,53.5,29.83,SE,129,1.0,1.0,87,0.00,,,0.00,Wunderground v.1.15,2013-02-07 16:52:00,
2013-02-07 10:59:00,57.6,53.8,29.83,SE,130,1.0,2.0,87,0.00,,,0.00,Wunderground v.1.15,2013-02-07 16:59:00,
2013-02-07 11:04:00,58.0,53.8,29.82,SSE,159,1.0,7.0,86,0.00,,,0.00,Wunderground v.1.15,2013-02-07 17:04:00,
2013-02-07 11:10:00,58.1,53.9,29.83,South,186,2.0,2.0,86,0.00,,,0.00,Wunderground v.1.15,2013-02-07 17:10:00,
2013-02-07 11:16:00,58.9,54.7,29.83,South,187,1.0,3.0,86,0.00,,,0.00,Wunderground v.1.15,2013-02-07 17:16:00,
2013-02-07 11:22:00,59.0,54.2,29.83,South,179,2.0,4.0,84,0.00,,,0.00,Wunderground v.1.15,2013-02-07 17:22:00,
2013-02-07 11:29:00,59.0,54.2,29.83,South,171,3.0,5.0,84,0.00,,,0.00,Wunderground v.1.15,2013-02-07 17:29:00,
2013-02-07 11:34:00,59.0,54.2,29.83,SSW,197,2.0,3.0,84,0.00,,,0.00,Wunderground v.1.15,2013-02-07 17:34:00,
2013-02-07 11:40:00,59.0,54.2,29.83,SSW,196,1.0,1.0,84,0.00,,,0.00,Wunderground v.1.15,2013-02-07 17:40:00,
2013-02-07 11:46:00,59.0,53.8,29.83,SSW,196,0.0,1.0,83,0.00,,,0.00,Wunderground v.1.15,2013-02-07 17:46:00,
2013-02-07 11:52:00,59.0,54.2,29.84,NNW,331,1.0,5.0,84,0.00,,,0.00,Wunderground v.1.15,2013-02-07 17:52:00,
2013-02-07 11:59:00,57.9,52.8,29.84,NNE,26,5.0,9.0,83,0.00,,,0.00,Wunderground v.1.15,2013-02-07 17:59:00,
2013-02-07 12:04:00,57.1,52.6,29.84,NE,55,6.0,6.0,85,0.00,,,0.00,Wunderground v.1.15,2013-02-07 18:04:00,
2013-02-07 12:10:00,56.5,52.4,29.84,NNE,24,6.0,6.0,86,0.00,,,0.00,Wunderground v.1.15,2013-02-07 18:10:00,
2013-02-07 12:16:00,55.7,51.9,29.84,NNE,31,8.0,10.0,87,0.00,,,0.00,Wunderground v.1.15,2013-02-07 18:16:00,
2013-02-07 12:22:00,54.8,51.3,29.84,NNE,18,9.0,9.0,88,0.00,,,0.00,Wunderground v.1.15,2013-02-07 18:22:00,
2013-02-07 12:29:00,54.2,50.7,29.84,North,355,7.0,10.0,88,0.00,,,0.00,Wunderground v.1.15,2013-02-07 18:29:00,
2013-02-07 12:34:00,54.0,50.8,29.84,North,351,7.0,13.0,89,0.00,,,0.00,Wunderground v.1.15,2013-02-07 18:34:00,
2013-02-07 12:40:00,53.8,50.6,29.84,NNE,19,7.0,9.0,89,0.00,,,0.00,Wunderground v.1.15,2013-02-07 18:40:00,
2013-02-07 12:46:00,53.6,50.7,29.84,NNE,13,7.0,9.0,90,0.00,,,0.00,Wunderground v.1.15,2013-02-07 18:46:00,
2013-02-07 12:52:00,53.5,50.6,29.84,NNE,26,5.0,8.0,90,0.00,,,0.00,Wunderground v.1.15,2013-02-07 18:52:00,
2013-02-07 12:59:00,53.3,50.7,29.84,NE,38,6.0,9.0,91,0.00,,,0.00,Wunderground v.1.15,2013-02-07 18:59:00,
2013-02-07 13:04:00,53.2,50.6,29.84,North,360,6.0,12.0,91,0.00,,,0.01,Wunderground v.1.15,2013-02-07 19:04:00,
2013-02-07 13:10:00,53.0,50.7,29.84,NNE,19,6.0,6.0,92,0.00,,,0.01,Wunderground v.1.15,2013-02-07 19:10:00,
2013-02-07 13:16:00,53.0,50.7,29.84,North,9,5.0,6.0,92,0.00,,,0.01,Wunderground v.1.15,2013-02-07 19:16:00,
2013-02-07 13:22:00,52.8,50.5,29.84,NNE,22,6.0,11.0,92,0.00,,,0.01,Wunderground v.1.15,2013-02-07 19:22:00,
2013-02-07 13:29:00,52.7,50.4,29.83,NE,39,8.0,11.0,92,0.00,,,0.02,Wunderground v.1.15,2013-02-07 19:29:00,
2013-02-07 13:34:00,52.6,50.6,29.84,NNE,21,8.0,11.0,93,0.00,,,0.02,Wunderground v.1.15,2013-02-07 19:34:00,
2013-02-07 13:40:00,52.7,50.7,29.84,NW,320,6.0,6.0,93,0.00,,,0.02,Wunderground v.1.15,2013-02-07 19:40:00,
2013-02-07 13:46:00,52.4,50.4,29.84,NNW,344,7.0,9.0,93,0.00,,,0.02,Wunderground v.1.15,2013-02-07 19:46:00,
2013-02-07 13:52:00,52.3,50.3,29.85,WNW,291,9.0,9.0,93,0.00,,,0.02,Wunderground v.1.15,2013-02-07 19:52:00,
2013-02-07 13:59:00,52.3,50.3,29.85,NNE,29,7.0,14.0,93,0.00,,,0.02,Wunderground v.1.15,2013-02-07 19:59:00,
2013-02-07 14:04:00,52.3,50.3,29.85,North,360,7.0,8.0,93,0.00,,,0.02,Wunderground v.1.15,2013-02-07 20:04:00,
2013-02-07 14:10:00,52.3,50.3,29.85,NNE,21,7.0,7.0,93,0.00,,,0.02,Wunderground v.1.15,2013-02-07 20:10:00,
2013-02-07 14:16:00,52.4,50.4,29.85,NNE,22,7.0,13.0,93,0.00,,,0.03,Wunderground v.1.15,2013-02-07 20:16:00,
2013-02-07 14:22:00,52.4,50.1,29.85,NE,36,7.0,11.0,92,0.12,,,0.04,Wunderground v.1.15,2013-02-07 20:22:00,
2013-02-07 14:29:00,52.5,50.2,29.85,NNE,20,8.0,13.0,92,0.05,,,0.04,Wunderground v.1.15,2013-02-07 20:29:00,
2013-02-07 14:34:00,52.6,50.3,29.85,NNE,25,8.0,11.0,92,0.04,,,0.04,Wunderground v.1.15,2013-02-07 20:34:00,
2013-02-07 14:40:00,52.6,50.0,29.86,NNE,30,9.0,9.0,91,0.00,,,0.04,Wunderground v.1.15,2013-02-07 20:40:00,
2013-02-07 14:46:00,52.8,50.2,29.86,North,11,10.0,10.0,91,0.00,,,0.04,Wunderground v.1.15,2013-02-07 20:46:00,
2013-02-07 14:52:00,53.0,50.1,29.86,NNE,14,7.0,8.0,90,0.00,,,0.04,Wunderground v.1.15,2013-02-07 20:52:00,
2013-02-07 14:58:00,53.0,50.1,29.86,NNE,13,7.0,12.0,90,0.00,,,0.04,Wunderground v.1.15,2013-02-07 20:58:00,
2013-02-07 15:04:00,53.0,49.8,29.87,NE,42,7.0,7.0,89,0.00,,,0.04,Wunderground v.1.15,2013-02-07 21:04:00,
2013-02-07 15:10:00,53.0,49.8,29.86,NNE,15,7.0,12.0,89,0.00,,,0.04,Wunderground v.1.15,2013-02-07 21:10:00,
2013-02-07 15:16:00,53.0,49.5,29.86,NE,51,8.0,15.0,88,0.00,,,0.04,Wunderground v.1.15,2013-02-07 21:16:00,
2013-02-07 15:22:00,53.1,49.9,29.86,NNE,19,7.0,8.0,89,0.00,,,0.04,Wunderground v.1.15,2013-02-07 21:22:00,
2013-02-07 15:29:00,53.0,49.5,29.86,North,355,8.0,18.0,88,0.00,,,0.04,Wunderground v.1.15,2013-02-07 21:29:00,
2013-02-07 15:34:00,53.0,49.8,29.86,NNE,19,9.0,10.0,89,0.00,,,0.04,Wunderground v.1.15,2013-02-07 21:34:00,
2013-02-07 15:40:00,53.0,49.8,29.87,NNE,17,7.0,10.0,89,0.00,,,0.05,Wunderground v.1.15,2013-02-07 21:40:00,
2013-02-07 15:46:00,53.1,49.9,29.87,NNE,22,6.0,10.0,89,0.00,,,0.05,Wunderground v.1.15,2013-02-07 21:46:00,
2013-02-07 15:52:00,53.2,49.7,29.87,North,11,7.0,13.0,88,0.00,,,0.05,Wunderground v.1.15,2013-02-07 21:52:00,
2013-02-07 15:59:00,53.4,49.6,29.87,NE,36,9.0,13.0,87,0.00,,,0.05,Wunderground v.1.15,2013-02-07 21:59:00,
2013-02-07 16:10:00,53.6,49.5,29.88,NNE,17,8.0,8.0,86,0.00,,,0.05,Wunderground v.1.15,2013-02-07 22:10:00,
2013-02-07 16:16:00,53.6,49.5,29.88,NNW,346,8.0,8.0,86,0.00,,,0.05,Wunderground v.1.15,2013-02-07 22:16:00,
2013-02-07 16:22:00,53.6,49.5,29.88,NNE,24,7.0,8.0,86,0.00,,,0.05,Wunderground v.1.15,2013-02-07 22:22:00,
2013-02-07 16:29:00,53.7,49.6,29.88,NNE,25,5.0,8.0,86,0.00,,,0.05,Wunderground v.1.15,2013-02-07 22:29:00,
2013-02-07 16:34:00,53.6,49.5,29.89,NNW,340,6.0,11.0,86,0.00,,,0.05,Wunderground v.1.15,2013-02-07 22:34:00,
2013-02-07 16:40:00,53.3,48.3,29.89,North,11,8.0,13.0,83,0.00,,,0.05,Wunderground v.1.15,2013-02-07 22:40:00,
2013-02-07 16:46:00,53.3,48.3,29.89,North,10,9.0,13.0,83,0.00,,,0.05,Wunderground v.1.15,2013-02-07 22:46:00,
2013-02-07 16:52:00,53.1,48.1,29.90,NNE,26,10.0,10.0,83,0.00,,,0.05,Wunderground v.1.15,2013-02-07 22:52:00,
2013-02-07 16:59:00,52.8,47.8,29.90,NE,40,10.0,18.0,83,0.00,,,0.05,Wunderground v.1.15,2013-02-07 22:59:00,
2013-02-07 17:04:00,52.4,47.4,29.91,NNE,14,9.0,10.0,83,0.00,,,0.05,Wunderground v.1.15,2013-02-07 23:04:00,
2013-02-07 17:10:00,52.0,47.3,29.92,NNE,30,7.0,7.0,84,0.00,,,0.05,Wunderground v.1.15,2013-02-07 23:10:00,
2013-02-07 17:16:00,51.8,47.7,29.93,NNE,13,5.0,7.0,86,0.00,,,0.05,Wunderground v.1.15,2013-02-07 23:16:00,
2013-02-07 17:22:00,51.6,47.9,29.93,NW,323,5.0,6.0,87,0.00,,,0.05,Wunderground v.1.15,2013-02-07 23:22:00,
2013-02-07 17:29:00,51.3,47.6,29.93,NNE,24,6.0,11.0,87,0.00,,,0.05,Wunderground v.1.15,2013-02-07 23:29:00,
2013-02-07 17:34:00,51.2,47.5,29.93,NNE,14,6.0,10.0,87,0.00,,,0.05,Wunderground v.1.15,2013-02-07 23:34:00,
2013-02-07 17:40:00,51.1,47.4,29.93,North,360,6.0,6.0,87,0.00,,,0.05,Wunderground v.1.15,2013-02-07 23:40:00,
2013-02-07 17:46:00,50.8,46.5,29.93,NNE,22,7.0,12.0,85,0.00,,,0.05,Wunderground v.1.15,2013-02-07 23:46:00,
2013-02-07 17:52:00,50.5,45.8,29.94,North,355,9.0,10.0,84,0.00,,,0.05,Wunderground v.1.15,2013-02-07 23:52:00,
2013-02-07 17:59:00,50.4,45.1,29.95,NNW,332,8.0,11.0,82,0.00,,,0.05,Wunderground v.1.15,2013-02-07 23:59:00,
2013-02-07 18:04:00,50.3,44.7,29.95,NNW,348,7.0,9.0,81,0.00,,,0.05,Wunderground v.1.15,2013-02-08 00:04:00,
2013-02-07 18:10:00,50.3,44.4,29.96,NNE,17,6.0,6.0,80,0.00,,,0.05,Wunderground v.1.15,2013-02-08 00:10:00,
2013-02-07 18:16:00,50.2,43.9,29.96,North,360,6.0,10.0,79,0.00,,,0.05,Wunderground v.1.15,2013-02-08 00:16:00,
2013-02-07 18:22:00,50.1,43.8,29.96,NNE,14,6.0,10.0,79,0.00,,,0.05,Wunderground v.1.15,2013-02-08 00:22:00,
2013-02-07 18:29:00,50.1,43.5,29.97,North,355,5.0,10.0,78,0.00,,,0.05,Wunderground v.1.15,2013-02-08 00:29:00,
2013-02-07 18:34:00,50.0,43.4,29.97,North,360,5.0,9.0,78,0.00,,,0.05,Wunderground v.1.15,2013-02-08 00:34:00,
2013-02-07 18:40:00,49.9,43.3,29.97,North,349,4.0,4.0,78,0.00,,,0.05,Wunderground v.1.15,2013-02-08 00:40:00,
2013-02-07 18:46:00,49.8,43.2,29.98,NNE,17,3.0,5.0,78,0.00,,,0.05,Wunderground v.1.15,2013-02-08 00:46:00,
2013-02-07 18:52:00,49.7,43.1,29.98,NNE,17,2.0,3.0,78,0.00,,,0.05,Wunderground v.1.15,2013-02-08 00:52:00,
2013-02-07 18:59:00,49.6,43.0,29.98,NNE,15,3.0,4.0,78,0.00,,,0.05,Wunderground v.1.15,2013-02-08 00:59:00,
2013-02-07 19:04:00,49.5,42.9,29.98,NNE,24,4.0,6.0,78,0.00,,,0.05,Wunderground v.1.15,2013-02-08 01:04:00,
2013-02-07 19:10:00,49.4,43.2,29.98,NNE,17,3.0,3.0,79,0.00,,,0.05,Wunderground v.1.15,2013-02-08 01:10:00,
2013-02-07 19:16:00,49.2,43.0,29.99,NNE,18,2.0,4.0,79,0.00,,,0.05,Wunderground v.1.15,2013-02-08 01:16:00,
2013-02-07 19:24:00,49.0,42.8,29.99,NNE,28,3.0,3.0,79,0.00,,,0.05,Wunderground v.1.15,2013-02-08 01:24:00,
2013-02-07 19:30:00,48.9,43.0,29.99,NNE,24,3.0,4.0,80,0.00,,,0.05,Wunderground v.1.15,2013-02-08 01:30:00,
2013-02-07 19:36:00,48.7,42.8,29.99,NNE,16,2.0,5.0,80,0.00,,,0.05,Wunderground v.1.15,2013-02-08 01:36:00,
2013-02-07 19:42:00,48.6,42.7,29.99,NNE,28,4.0,6.0,80,0.00,,,0.05,Wunderground v.1.15,2013-02-08 01:42:00,
2013-02-07 19:49:00,48.5,42.6,29.99,NNE,14,4.0,6.0,80,0.00,,,0.05,Wunderground v.1.15,2013-02-08 01:49:00,
2013-02-07 19:54:00,48.3,42.4,29.99,North,11,3.0,3.0,80,0.00,,,0.05,Wunderground v.1.15,2013-02-08 01:54:00,
2013-02-07 20:00:00,48.2,42.6,30.00,NNE,15,3.0,3.0,81,0.00,,,0.05,Wunderground v.1.15,2013-02-08 02:00:00,
2013-02-07 20:10:00,47.8,42.3,30.00,NNE,22,2.0,2.0,81,0.00,,,0.05,Wunderground v.1.15,2013-02-08 02:10:00,
2013-02-07 20:16:00,47.8,41.9,30.01,NNE,32,3.0,6.0,80,0.00,,,0.05,Wunderground v.1.15,2013-02-08 02:16:00,
2013-02-07 20:22:00,48.0,41.8,30.01,NNE,13,4.0,4.0,79,0.00,,,0.05,Wunderground v.1.15,2013-02-08 02:22:00,
2013-02-07 20:29:00,48.1,41.2,30.02,NNE,28,4.0,5.0,77,0.00,,,0.05,Wunderground v.1.15,2013-02-08 02:29:00,
2013-02-07 20:34:00,48.3,41.1,30.02,NNE,18,5.0,7.0,76,0.00,,,0.05,Wunderground v.1.15,2013-02-08 02:34:00,
2013-02-07 20:40:00,48.3,40.7,30.02,NNE,24,6.0,6.0,75,0.00,,,0.05,Wunderground v.1.15,2013-02-08 02:40:00,
2013-02-07 20:46:00,48.3,40.4,30.02,NNE,13,6.0,6.0,74,0.00,,,0.05,Wunderground v.1.15,2013-02-08 02:46:00,
2013-02-07 20:52:00,48.2,40.3,30.03,NE,45,5.0,5.0,74,0.00,,,0.05,Wunderground v.1.15,2013-02-08 02:52:00,
2013-02-07 20:59:00,48.1,40.2,30.03,NNE,15,4.0,7.0,74,0.00,,,0.05,Wunderground v.1.15,2013-02-08 02:59:00,
2013-02-07 21:04:00,47.9,40.0,30.04,NNE,15,4.0,8.0,74,0.00,,,0.05,Wunderground v.1.15,2013-02-08 03:04:00,
2013-02-07 21:10:00,47.8,39.9,30.04,NNE,21,4.0,4.0,74,0.00,,,0.05,Wunderground v.1.15,2013-02-08 03:10:00,
2013-02-07 21:16:00,47.7,39.8,30.05,NNE,31,5.0,6.0,74,0.00,,,0.05,Wunderground v.1.15,2013-02-08 03:16:00,
2013-02-07 21:22:00,47.6,39.7,30.05,NNE,22,6.0,6.0,74,0.00,,,0.05,Wunderground v.1.15,2013-02-08 03:22:00,
2013-02-07 21:29:00,47.4,39.5,30.05,North,5,5.0,7.0,74,0.00,,,0.05,Wunderground v.1.15,2013-02-08 03:29:00,
2013-02-07 21:34:00,47.1,39.6,30.05,NNE,17,5.0,9.0,75,0.00,,,0.05,Wunderground v.1.15,2013-02-08 03:34:00,
2013-02-07 21:40:00,46.9,39.4,30.05,NNE,30,5.0,7.0,75,0.00,,,0.05,Wunderground v.1.15,2013-02-08 03:40:00,
2013-02-07 21:46:00,46.7,39.2,30.05,NNE,24,5.0,7.0,75,0.00,,,0.05,Wunderground v.1.15,2013-02-08 03:46:00,
2013-02-07 21:52:00,46.5,39.0,30.05,NNE,15,5.0,8.0,75,0.00,,,0.05,Wunderground v.1.15,2013-02-08 03:52:00,
2013-02-07 21:59:00,46.3,39.1,30.06,NNE,21,5.0,8.0,76,0.00,,,0.05,Wunderground v.1.15,2013-02-08 03:59:00,
2013-02-07 22:04:00,46.1,39.0,30.07,NNE,26,5.0,7.0,76,0.00,,,0.05,Wunderground v.1.15,2013-02-08 04:04:00,
2013-02-07 22:10:00,45.9,38.8,30.07,NNE,18,4.0,4.0,76,0.00,,,0.05,Wunderground v.1.15,2013-02-08 04:10:00,
2013-02-07 22:16:00,45.7,38.9,30.07,NNE,29,5.0,7.0,77,0.00,,,0.05,Wunderground v.1.15,2013-02-08 04:16:00,
2013-02-07 22:22:00,45.5,38.7,30.06,NNW,330,5.0,6.0,77,0.00,,,0.05,Wunderground v.1.15,2013-02-08 04:22:00,
2013-02-07 22:29:00,45.4,38.6,30.07,NE,34,5.0,7.0,77,0.00,,,0.05,Wunderground v.1.15,2013-02-08 04:29:00,
2013-02-07 22:34:00,45.2,38.4,30.07,North,355,6.0,7.0,77,0.00,,,0.05,Wunderground v.1.15,2013-02-08 04:34:00,
2013-02-07 22:40:00,45.1,38.3,30.08,NNE,22,6.0,6.0,77,0.00,,,0.05,Wunderground v.1.15,2013-02-08 04:40:00,
2013-02-07 22:46:00,45.0,38.2,30.08,NNE,19,5.0,6.0,77,0.00,,,0.05,Wunderground v.1.15,2013-02-08 04:46:00,
2013-02-07 22:52:00,45.0,37.9,30.08,NNE,28,6.0,10.0,76,0.00,,,0.05,Wunderground v.1.15,2013-02-08 04:52:00,
2013-02-07 22:59:00,45.0,37.9,30.08,NNE,26,6.0,10.0,76,0.00,,,0.05,Wunderground v.1.15,2013-02-08 04:59:00,
2013-02-07 23:00:00,44.9,37.8,30.08,NNE,13,6.0,6.0,76,0.00,,,0.05,Wunderground v.1.15,2013-02-08 05:00:00,
2013-02-07 23:02:00,44.9,37.8,30.08,North,11,6.0,6.0,76,0.00,,,0.05,Wunderground v.1.15,2013-02-08 05:02:00,
2013-02-07 23:09:00,44.6,37.5,30.09,NNE,14,5.0,6.0,76,0.00,,,0.05,Wunderground v.1.15,2013-02-08 05:09:00,
2013-02-07 23:14:00,44.4,37.3,30.09,NE,41,6.0,11.0,76,0.00,,,0.05,Wunderground v.1.15,2013-02-08 05:14:00,
2013-02-07 23:16:00,44.3,37.2,30.09,NNE,15,5.0,11.0,76,0.00,,,0.05,Wunderground v.1.15,2013-02-08 05:16:00,
2013-02-07 23:22:00,44.3,36.9,30.09,NNE,31,6.0,6.0,75,0.00,,,0.05,Wunderground v.1.15,2013-02-08 05:22:00,
2013-02-07 23:28:00,44.2,37.1,30.09,NNE,23,6.0,9.0,76,0.00,,,0.05,Wunderground v.1.15,2013-02-08 05:28:00,
2013-02-07 23:34:00,44.1,36.7,30.09,NNE,13,6.0,6.0,75,0.00,,,0.05,Wunderground v.1.15,2013-02-08 05:34:00,
2013-02-07 23:40:00,44.0,36.6,30.10,NNE,32,6.0,6.0,75,0.00,,,0.05,Wunderground v.1.15,2013-02-08 05:40:00,
2013-02-07 23:46:00,43.9,36.5,30.10,NE,38,7.0,7.0,75,0.00,,,0.05,Wunderground v.1.15,2013-02-08 05:46:00,
2013-02-07 23:52:00,43.7,36.3,30.10,NNE,20,7.0,7.0,75,0.00,,,0.05,Wunderground v.1.15,2013-02-08 05:52:00,
2013-02-07 23:59:00,43.6,36.2,30.11,NE,36,6.0,9.0,75,0.00,,,0.05,Wunderground v.1.15,2013-02-08 05:59:00,